Date,Installs,Update checks
2019-03-04,2,0
2019-03-05,16,3
2019-03-06,16,6
2019-03-07,25,12
2019-03-08,27,19
2019-03-09,22,27
2019-03-10,32,27
2019-03-11,20,40
2019-03-12,13,38
2019-03-13,10,44
2019-03-14,13,53
2019-03-15,9,56
2019-03-16,7,49
2019-03-17,5,41
2019-03-18,6,61
2019-03-19,12,55
2019-03-20,11,65
2019-03-21,13,71
2019-03-22,13,86
2019-03-23,27,68
2019-03-24,9,73
2019-03-25,14,90
2019-03-26,20,92
2019-03-27,14,91
2019-03-28,17,101
2019-03-29,17,104
2019-03-30,7,92
2019-03-31,6,100
2019-04-01,4,130
2019-04-02,7,121
2019-04-03,6,111
2019-04-04,9,118
2019-04-05,6,84
2019-04-06,6,94
2019-04-07,7,97
2019-04-08,6,112
2019-04-09,5,121
2019-04-10,7,116
2019-04-11,2,115
2019-04-12,4,112
2019-04-13,5,107
2019-04-14,5,98
2019-04-15,9,125
2019-04-16,12,116
2019-04-17,9,118
2019-04-18,5,108
2019-04-19,5,129
2019-04-20,11,114
2019-04-21,6,91
2019-04-22,5,130
2019-04-23,2,124
2019-04-24,4,115
2019-04-25,8,116
2019-04-26,5,125
2019-04-27,2,96
2019-04-28,5,119
2019-04-29,5,120
2019-04-30,6,114
2019-05-01,5,78
2019-05-02,5,92
2019-05-03,5,80
2019-05-04,9,105
2019-05-05,6,135
2019-05-06,9,145
2019-05-07,9,122
2019-05-08,12,127
2019-05-09,11,140
2019-05-10,9,143
2019-05-11,5,114
2019-05-12,5,119
2019-05-13,11,153
2019-05-14,11,146
2019-05-15,3,143
2019-05-16,4,141
2019-05-17,3,146
2019-05-18,1,128
2019-05-19,6,113
2019-05-20,5,132
2019-05-21,4,142
2019-05-22,5,139
2019-05-23,5,132
2019-05-24,5,142
2019-05-25,6,116
2019-05-26,12,115
2019-05-27,10,137
2019-05-28,9,139
2019-05-29,6,160
2019-05-30,7,159
2019-05-31,8,152
2019-06-01,11,126
2019-06-02,3,131
2019-06-03,6,149
2019-06-04,5,145
2019-06-05,1,160
2019-06-06,4,144
2019-06-07,0,121
2019-06-08,2,119
2019-06-09,2,125
2019-06-10,2,162
2019-06-11,0,148
2019-06-12,1,152
2019-06-13,6,155
2019-06-14,14,140
2019-06-15,18,120
2019-06-16,16,116
2019-06-17,9,143
2019-06-18,21,141
2019-06-19,22,147
2019-06-20,17,156
2019-06-21,9,159
2019-06-22,19,129
2019-06-23,13,128
2019-06-24,10,178
2019-06-25,8,160
2019-06-26,4,181
2019-06-27,7,193
2019-06-28,10,176
2019-06-29,10,137
2019-06-30,9,145
2019-07-01,12,175
2019-07-02,5,172
2019-07-03,7,173
2019-07-04,8,174
2019-07-05,16,170
2019-07-06,8,143
2019-07-07,7,134
2019-07-08,4,176
2019-07-09,5,176
2019-07-10,9,182
2019-07-11,8,167
2019-07-12,14,176
2019-07-13,11,151
2019-07-14,11,134
2019-07-15,8,197
2019-07-16,10,197
2019-07-17,9,206
2019-07-18,12,200
2019-07-19,11,200
2019-07-20,8,166
2019-07-21,11,175
2019-07-22,10,187
2019-07-23,15,238
2019-07-24,14,210
2019-07-25,13,217
2019-07-26,11,228
2019-07-27,6,171
2019-07-28,5,183
2019-07-29,6,234
2019-07-30,5,240
2019-07-31,9,233
2019-08-01,6,229
2019-08-02,5,230
2019-08-03,6,183
2019-08-04,13,166
2019-08-05,8,254
2019-08-06,5,213
2019-08-07,8,233
2019-08-08,18,253
2019-08-09,26,254
2019-08-10,20,200
2019-08-11,34,207
2019-08-12,35,257
2019-08-13,24,278
2019-08-14,18,290
2019-08-15,15,261
2019-08-16,15,287
2019-08-17,17,245
2019-08-18,9,225
2019-08-19,10,291
2019-08-20,12,282
2019-08-21,15,276
2019-08-22,19,305
2019-08-23,22,278
2019-08-24,9,214
2019-08-25,11,232
2019-08-26,17,296
2019-08-27,14,314
2019-08-28,8,294
2019-08-29,10,298
2019-08-30,10,313
2019-08-31,20,243
2019-09-01,15,236
2019-09-02,15,311
2019-09-03,10,305
2019-09-04,9,320
2019-09-05,14,294
2019-09-06,15,301
2019-09-07,18,268
2019-09-08,9,243
2019-09-09,9,321
2019-09-10,6,326
2019-09-11,13,293
2019-09-12,11,312
2019-09-13,10,231
2019-09-14,11,251
2019-09-15,13,233
2019-09-16,27,341
2019-09-17,21,319
2019-09-18,14,312
2019-09-19,15,335
2019-09-20,16,327
2019-09-21,18,290
2019-09-22,14,280
2019-09-23,18,346
2019-09-24,17,332
2019-09-25,19,339
2019-09-26,24,320
2019-09-27,17,343
2019-09-28,25,302
2019-09-29,22,358
2019-09-30,19,363
2019-10-01,17,255
2019-10-02,12,265
2019-10-03,15,264
2019-10-04,14,272
2019-10-05,16,306
2019-10-06,17,288
2019-10-07,15,314
2019-10-08,17,380
2019-10-09,16,403
2019-10-10,9,373
2019-10-11,14,388
2019-10-12,19,385
2019-10-13,15,284
2019-10-14,20,406
2019-10-15,12,393
2019-10-16,14,390
2019-10-17,10,379
2019-10-18,10,400
2019-10-19,12,340
2019-10-20,12,319
2019-10-21,8,416
2019-10-22,13,409
2019-10-23,46,364
2019-10-24,45,440
2019-10-25,40,417
2019-10-26,29,354
2019-10-27,30,373
2019-10-28,35,479
2019-10-29,33,481
2019-10-30,37,448
2019-10-31,32,444
2019-11-01,33,497
2019-11-02,36,433
2019-11-03,24,355
2019-11-04,28,506
2019-11-05,25,479
2019-11-06,22,493
2019-11-07,30,492
2019-11-08,21,500
2019-11-09,17,439
2019-11-10,12,434
2019-11-11,11,512
2019-11-12,14,478
2019-11-13,22,502
2019-11-14,21,490
2019-11-15,20,492
2019-11-16,23,417
2019-11-17,16,441
2019-11-18,18,537
2019-11-19,18,519
2019-11-20,23,533
2019-11-21,20,501
2019-11-22,12,536
2019-11-23,20,434
2019-11-24,15,365
2019-11-25,19,554
2019-11-26,17,540
2019-11-27,15,524
2019-11-28,17,541
2019-11-29,16,529
2019-11-30,21,471
2019-12-01,17,453
2019-12-02,11,587
2019-12-03,19,567
2019-12-04,25,572
2019-12-05,22,541
2019-12-06,25,561
2019-12-07,12,491
2019-12-08,12,490
2019-12-09,15,608
2019-12-10,17,593
2019-12-11,22,608
2019-12-12,16,573
2019-12-13,14,602
2019-12-14,19,503
2019-12-15,11,493
2019-12-16,15,612
2019-12-17,16,589
2019-12-18,25,581
2019-12-19,16,572
2019-12-20,14,573
2019-12-21,15,511
2019-12-22,17,474
2019-12-23,14,605
2019-12-24,6,588
2019-12-25,8,624
2019-12-26,15,566
2019-12-27,20,582
2019-12-28,21,520
2019-12-29,21,521
2019-12-30,52,621
2019-12-31,46,624
2020-01-01,28,500
2020-01-02,30,647
2020-01-03,21,637
2020-01-04,18,552
2020-01-05,12,541
2020-01-06,19,656
2020-01-07,24,647
2020-01-08,24,656
2020-01-09,25,641
2020-01-10,19,633
2020-01-11,13,523
2020-01-12,21,512
2020-01-13,14,663
2020-01-14,13,645
2020-01-15,17,634
2020-01-16,20,642
2020-01-17,24,589
2020-01-18,14,516
2020-01-19,13,570
2020-01-20,21,558
2020-01-21,12,528
2020-01-22,13,467
2020-01-23,17,429
2020-01-24,7,378
2020-01-25,11,392
2020-01-26,13,395
2020-01-27,13,440
2020-01-28,9,444
2020-01-29,11,471
2020-01-30,14,479
2020-01-31,21,528
2020-02-01,14,499
2020-02-02,14,550
2020-02-03,20,559
2020-02-04,21,566
2020-02-05,16,562
2020-02-06,18,573
2020-02-07,17,584
2020-02-08,18,181
2020-02-09,18,250
2020-02-10,17,688
2020-02-11,18,589
2020-02-12,18,654
2020-02-13,22,649
2020-02-14,14,658
2020-02-15,25,616
2020-02-16,15,642
2020-02-17,29,667
2020-02-18,21,707
2020-02-19,18,670
2020-02-20,25,682
2020-02-21,23,726
2020-02-22,9,648
2020-02-23,15,657
2020-02-24,21,730
2020-02-25,17,736
2020-02-26,24,721
2020-02-27,22,749
2020-02-28,24,748
2020-02-29,22,695
2020-03-01,20,700
2020-03-02,64,798
2020-03-03,75,800
2020-03-04,46,797
2020-03-05,35,821
2020-03-06,54,847
2020-03-07,58,762
2020-03-08,36,745
2020-03-09,30,892
2020-03-10,22,892
2020-03-11,10,870
2020-03-12,30,847
2020-03-13,14,815
2020-03-14,17,763
2020-03-15,21,712
2020-03-16,19,863
2020-03-17,24,822
2020-03-18,29,883
2020-03-19,43,869
2020-03-20,51,947
2020-03-21,34,853
2020-03-22,35,851
2020-03-23,37,1044
2020-03-24,36,1042
2020-03-25,41,1066
2020-03-26,44,1128
2020-03-27,33,1104
2020-03-28,37,980
2020-03-29,28,992
2020-03-30,36,1172
2020-03-31,29,1123
2020-04-01,23,1125
2020-04-02,25,1106
2020-04-03,30,1141
2020-04-04,30,961
2020-04-05,19,951
2020-04-06,21,989
2020-04-07,23,1140
2020-04-08,19,1136
2020-04-09,22,1131
2020-04-10,32,1112
2020-04-11,34,1025
2020-04-12,33,975
2020-04-13,22,1160
2020-04-14,26,1176
2020-04-15,16,1178
2020-04-16,25,1147
2020-04-17,36,1153
2020-04-18,30,1035
2020-04-19,33,967
2020-04-20,34,1192
2020-04-21,24,1142
2020-04-22,25,1201
2020-04-23,32,1147
2020-04-24,21,1141
2020-04-25,22,997
2020-04-26,20,1155
2020-04-27,14,1156
2020-04-28,20,1155
2020-04-29,16,1143
2020-04-30,20,1167
2020-05-01,13,942
2020-05-02,13,897
2020-05-03,15,928
2020-05-04,17,985
2020-05-05,10,1015
2020-05-06,23,1202
2020-05-07,8,1152
2020-05-08,15,1165
2020-05-09,17,1175
2020-05-10,12,984
2020-05-11,12,1214
2020-05-12,11,1127
2020-05-13,27,1116
2020-05-14,21,1158
2020-05-15,11,1172
2020-05-16,18,1074
2020-05-17,8,1030
2020-05-18,21,1205
2020-05-19,16,1173
2020-05-20,12,1124
2020-05-21,15,1123
2020-05-22,8,1138
2020-05-23,15,1027
2020-05-24,15,961
2020-05-25,10,1194
2020-05-26,14,1148
2020-05-27,19,1144
2020-05-28,9,1164
2020-05-29,18,1169
2020-05-30,15,1036
2020-05-31,7,1050
2020-06-01,8,1167
2020-06-02,8,1165
2020-06-03,10,1138
2020-06-04,12,1119
2020-06-05,14,1202
2020-06-06,8,1015
2020-06-07,7,969
2020-06-08,10,1181
2020-06-09,12,1167
2020-06-10,16,1163
2020-06-11,14,1174
2020-06-12,11,1175
2020-06-13,7,1028
2020-06-14,6,1062
2020-06-15,16,1174
2020-06-16,8,1154
2020-06-17,7,1137
2020-06-18,8,1167
2020-06-19,17,1125
2020-06-20,13,1071
2020-06-21,8,990
2020-06-22,7,1197
2020-06-23,12,1141
2020-06-24,14,1149
2020-06-25,13,931
2020-06-26,11,898
2020-06-27,6,989
2020-06-28,8,1143
2020-06-29,6,1157
2020-06-30,7,1150
2020-07-01,10,1131
2020-07-02,7,1129
2020-07-03,11,1136
2020-07-04,9,987
2020-07-05,3,969
2020-07-06,7,1159
2020-07-07,5,1081
2020-07-08,7,1128
2020-07-09,16,1089
2020-07-10,25,1149
2020-07-11,15,974
2020-07-12,17,991
2020-07-13,10,1204
2020-07-14,14,1109
2020-07-15,17,1147
2020-07-16,9,1177
2020-07-17,22,1177
2020-07-18,39,1023
2020-07-19,18,1003
2020-07-20,15,1207
2020-07-21,18,1170
2020-07-22,34,1188
2020-07-23,24,1191
2020-07-24,25,1220
2020-07-25,25,1071
2020-07-26,28,1051
2020-07-27,24,1280
2020-07-28,13,1274
2020-07-29,30,1248
2020-07-30,34,1267
2020-07-31,29,1250
2020-08-01,28,1140
2020-08-02,22,1067
2020-08-03,17,1309
2020-08-04,15,1292
2020-08-05,18,1263
2020-08-06,14,1258
2020-08-07,20,1286
2020-08-08,13,1123
2020-08-09,19,1092
2020-08-10,19,1298
2020-08-11,15,1278
2020-08-12,18,1263
2020-08-13,14,1261
2020-08-14,12,1238
2020-08-15,9,1138
2020-08-16,12,1095
2020-08-17,12,1315
2020-08-18,15,1244
2020-08-19,16,1271
2020-08-20,14,1248
2020-08-21,12,1241
2020-08-22,13,1106
2020-08-23,16,1071
2020-08-24,13,1292
2020-08-25,12,1273
2020-08-26,17,1304
2020-08-27,16,1259
2020-08-28,13,1240
2020-08-29,15,1089
2020-08-30,11,1076
2020-08-31,15,1259
2020-09-01,17,1259
2020-09-02,9,1218
2020-09-03,13,1196
2020-09-04,12,1203
2020-09-05,10,1088
2020-09-06,12,1032
2020-09-07,15,1244
2020-09-08,11,1158
2020-09-09,14,1167
2020-09-10,19,1165
2020-09-11,16,1202
2020-09-12,13,1067
2020-09-13,17,1029
2020-09-14,14,1220
2020-09-15,10,1139
2020-09-16,9,1172
2020-09-17,9,1142
2020-09-18,11,1199
2020-09-19,13,1075
2020-09-20,12,966
2020-09-21,10,1234
2020-09-22,11,1142
2020-09-23,10,1196
2020-09-24,8,1178
2020-09-25,8,1204
2020-09-26,6,1019
2020-09-27,8,1141
2020-09-28,9,1087
2020-09-29,8,1117
2020-09-30,14,1135
2020-10-01,3,849
2020-10-02,1,886
2020-10-03,6,886
2020-10-04,9,923
2020-10-05,11,901
2020-10-06,10,981
2020-10-07,5,978
2020-10-08,5,1050
2020-10-09,3,1203
2020-10-10,11,1162
2020-10-11,7,991
2020-10-12,5,1184
2020-10-13,11,1128
2020-10-14,9,1151
2020-10-15,8,1185
2020-10-16,4,1104
2020-10-17,7,1047
2020-10-18,8,953
2020-10-19,5,1204
2020-10-20,9,1148
2020-10-21,4,1145
2020-10-22,9,1157
2020-10-23,3,1194
2020-10-24,8,1018
2020-10-25,4,945
2020-10-26,8,1202
2020-10-27,17,1112
2020-10-28,3,1160
2020-10-29,6,1134
2020-10-30,7,1168
2020-10-31,4,1034
2020-11-01,9,989
2020-11-02,9,1170
2020-11-03,7,1135
2020-11-04,9,1154
2020-11-05,13,1132
2020-11-06,7,1160
2020-11-07,13,1004
2020-11-08,7,957
2020-11-09,10,1154
2020-11-10,5,1150
2020-11-11,7,1089
2020-11-12,14,1102
2020-11-13,9,1135
2020-11-14,10,1020
2020-11-15,12,979
2020-11-16,11,1190
2020-11-17,21,1140
2020-11-18,16,1134
2020-11-19,14,1105
2020-11-20,11,1196
2020-11-21,12,1022
2020-11-22,14,996
2020-11-23,7,1177
2020-11-24,16,1142
2020-11-25,11,1160
2020-11-26,5,1115
2020-11-27,3,1166
2020-11-28,4,1036
2020-11-29,7,934
2020-11-30,5,1194
2020-12-01,8,1126
2020-12-02,10,1130
2020-12-03,5,1118
2020-12-04,1,1136
2020-12-05,6,1031
2020-12-06,10,965
2020-12-07,4,1183
2020-12-08,1,1075
2020-12-09,4,1135
2020-12-10,9,1107
2020-12-11,8,1147
2020-12-12,5,1006
2020-12-13,10,998
2020-12-14,6,1148
2020-12-15,6,1152
2020-12-16,6,1093
2020-12-17,5,1135
2020-12-18,5,1133
2020-12-19,5,998
2020-12-20,11,936
2020-12-21,5,1153
2020-12-22,10,1103
2020-12-23,7,1104
2020-12-24,7,1102
2020-12-25,5,1077
2020-12-26,4,973
2020-12-27,6,947
2020-12-28,5,1114
2020-12-29,2,1102
2020-12-30,9,1100
2020-12-31,13,1100
2021-01-01,3,870
2021-01-02,7,924
2021-01-03,12,964
2021-01-04,4,1157
2021-01-05,8,1162
2021-01-06,10,1150
2021-01-07,1,1103
2021-01-08,3,1075
2021-01-09,5,931
2021-01-10,7,910
2021-01-11,8,1116
2021-01-12,5,1066
2021-01-13,6,1062
2021-01-14,4,1056
2021-01-15,6,1116
2021-01-16,8,956
2021-01-17,18,941
2021-01-18,15,1124
2021-01-19,4,1073
2021-01-20,7,1169
2021-01-21,8,1083
2021-01-22,11,1103
2021-01-23,13,978
2021-01-24,3,949
2021-01-25,7,1116
2021-01-26,2,1110
2021-01-27,6,1093
2021-01-28,6,1089
2021-01-29,1,1155
2021-01-30,4,887
2021-01-31,5,884
2021-02-01,7,1187
2021-02-02,2,1102
2021-02-03,6,1097
2021-02-04,2,1079
2021-02-05,6,1082
2021-02-06,6,942
2021-02-07,1,1022
2021-02-08,6,942
2021-02-09,9,696
2021-02-10,1,694
2021-02-11,4,547
2021-02-12,2,535
2021-02-13,5,517
2021-02-14,5,388
2021-02-15,1,809
2021-02-16,6,764
2021-02-17,2,850
2021-02-18,0,1022
2021-02-19,3,1066
2021-02-20,4,1011
2021-02-21,4,925
2021-02-22,2,1031
2021-02-23,4,1018
2021-02-24,4,1029
2021-02-25,7,1089
2021-02-26,2,1037
2021-02-27,0,950
2021-02-28,4,914
2021-03-01,4,1085
2021-03-02,4,1081
2021-03-03,4,1067
2021-03-04,4,1057
2021-03-05,1,1040
2021-03-06,2,958
2021-03-07,2,867
2021-03-08,4,822
2021-03-09,3,798
2021-03-10,3,889
2021-03-11,3,841
2021-03-12,4,839
2021-03-13,2,704
2021-03-14,1,697
2021-03-15,5,775
2021-03-16,0,879
2021-03-17,1,755
2021-03-18,3,803
2021-03-19,6,759
2021-03-20,1,645
2021-03-21,2,610
2021-03-22,0,736
2021-03-23,2,603
2021-03-24,0,726
2021-03-25,2,887
2021-03-26,4,782
2021-03-27,6,584
2021-03-28,5,633
2021-03-29,7,620
2021-03-30,3,747
2021-03-31,4,621
2021-04-01,5,745
2021-04-02,4,635
2021-04-03,3,480
2021-04-04,9,518
2021-04-05,4,544
2021-04-06,7,749
2021-04-07,4,735
2021-04-08,7,707
2021-04-09,4,694
2021-04-10,9,642
2021-04-11,4,613
2021-04-12,3,568
2021-04-13,2,660
2021-04-14,6,690
2021-04-15,3,695
2021-04-16,7,1033
2021-04-17,3,882
2021-04-18,2,846
2021-04-19,3,1014
2021-04-20,5,951
2021-04-21,5,978
2021-04-22,4,937
2021-04-23,2,971
2021-04-24,2,809
2021-04-25,1,1006
2021-04-26,2,961
2021-04-27,2,940
2021-04-28,4,981
2021-04-29,3,927
2021-04-30,2,925
2021-05-01,3,688
2021-05-02,9,709
2021-05-03,4,730
2021-05-04,10,780
2021-05-05,6,798
2021-05-06,8,945
2021-05-07,2,987
2021-05-08,4,985
2021-05-09,5,834
2021-05-10,7,927
2021-05-11,6,934
2021-05-12,2,962
2021-05-13,2,907
2021-05-14,4,949
2021-05-15,8,847
2021-05-16,4,789
2021-05-17,4,982
2021-05-18,4,906
2021-05-19,3,957
2021-05-20,4,920
2021-05-21,6,906
2021-05-22,1,858
2021-05-23,2,800
2021-05-24,2,988
2021-05-25,1,948
2021-05-26,6,951
2021-05-27,5,921
2021-05-28,4,970
2021-05-29,3,862
2021-05-30,6,754
2021-05-31,6,974
2021-06-01,2,893
2021-06-02,3,973
2021-06-03,3,918
2021-06-04,5,921
2021-06-05,2,564
2021-06-06,10,835
2021-06-07,5,960
2021-06-08,0,919
2021-06-09,4,984
2021-06-10,7,963
2021-06-11,8,945
2021-06-12,4,747
2021-06-13,7,769
2021-06-14,10,794
2021-06-15,6,1010
2021-06-16,2,957
2021-06-17,1,961
2021-06-18,4,1001
2021-06-19,4,824
2021-06-20,11,807
2021-06-21,3,972
2021-06-22,8,946
2021-06-23,9,943
2021-06-24,7,967
2021-06-25,5,981
2021-06-26,0,863
2021-06-27,3,836
2021-06-28,5,973
2021-06-29,2,950
2021-06-30,4,948
2021-07-01,3,945
2021-07-02,8,919
2021-07-03,5,805
2021-07-04,2,776
2021-07-05,0,946
2021-07-06,5,922
2021-07-07,4,896
2021-07-08,3,942
2021-07-09,5,937
2021-07-10,2,775
2021-07-11,5,774
2021-07-12,6,951
2021-07-13,8,968
2021-07-14,6,903
2021-07-15,3,897
2021-07-16,3,919
2021-07-17,4,763
2021-07-18,4,54
2021-07-19,3,107
2021-07-20,4,963
2021-07-21,2,887
2021-07-22,3,889
2021-07-23,4,886
2021-07-24,3,751
2021-07-25,1,783
2021-07-26,6,892
2021-07-27,4,906
2021-07-28,5,898
2021-07-29,3,885
2021-07-30,1,905
2021-07-31,5,796
2021-08-01,4,737
2021-08-02,2,878
2021-08-03,3,892
2021-08-04,5,898
2021-08-05,14,931
2021-08-06,4,899
2021-08-07,9,811
2021-08-08,2,770
2021-08-09,5,945
2021-08-10,7,895
2021-08-11,4,900
2021-08-12,1,879
2021-08-13,7,919
2021-08-14,5,759
2021-08-15,11,789
2021-08-16,5,942
2021-08-17,4,919
2021-08-18,1,907
2021-08-19,4,901
2021-08-20,1,888
2021-08-21,4,774
2021-08-22,2,766
2021-08-23,5,889
2021-08-24,5,925
2021-08-25,9,900
2021-08-26,7,900
2021-08-27,6,904
2021-08-28,3,770
2021-08-29,3,758
2021-08-30,4,908
2021-08-31,5,900
2021-09-01,4,888
2021-09-02,5,829
2021-09-03,2,832
2021-09-04,6,735
2021-09-05,4,734
2021-09-06,3,854
2021-09-07,5,766
2021-09-08,8,874
2021-09-09,2,835
2021-09-10,3,843
2021-09-11,6,745
2021-09-12,5,711
2021-09-13,7,899
2021-09-14,3,878
2021-09-15,2,843
2021-09-16,4,865
2021-09-17,8,842
2021-09-18,0,807
2021-09-19,3,681
2021-09-20,2,656
2021-09-21,1,667
2021-09-22,1,870
2021-09-23,2,867
2021-09-24,5,871
2021-09-25,4,738
2021-09-26,3,830
2021-09-27,2,829
2021-09-28,2,830
2021-09-29,2,822
2021-09-30,4,768
2021-10-01,3,586
2021-10-02,3,606
2021-10-03,1,595
2021-10-04,2,633
2021-10-05,1,634
2021-10-06,3,658
2021-10-07,1,682
2021-10-08,1,815
2021-10-09,2,833
2021-10-10,1,691
2021-10-11,1,814
2021-10-12,1,778
2021-10-13,1,806
2021-10-14,2,844
2021-10-15,3,820
2021-10-16,3,694
2021-10-17,0,650
2021-10-18,4,832
2021-10-19,3,773
2021-10-20,5,816
2021-10-21,2,775
2021-10-22,0,779
2021-10-23,0,716
2021-10-24,4,670
2021-10-25,2,818
2021-10-26,2,822
2021-10-27,5,814
2021-10-28,3,800
2021-10-29,2,816
2021-10-30,4,683
2021-10-31,7,692
2021-11-01,4,832
2021-11-02,4,784
2021-11-03,2,798
2021-11-04,2,806
2021-11-05,4,772
2021-11-06,2,701
2021-11-07,8,647
2021-11-08,8,795
2021-11-09,8,795
2021-11-10,16,754
2021-11-11,3,800
2021-11-12,12,783
2021-11-13,12,725
2021-11-14,15,676
2021-11-15,10,824
2021-11-16,10,799
2021-11-17,8,809
2021-11-18,13,787
2021-11-19,19,796
2021-11-20,11,731
2021-11-21,13,697
2021-11-22,5,808
2021-11-23,3,807
2021-11-24,11,791
2021-11-25,1,781
2021-11-26,4,791
2021-11-27,8,685
2021-11-28,4,675
2021-11-29,7,843
2021-11-30,5,809
2021-12-01,6,822
2021-12-02,8,804
2021-12-03,7,790
2021-12-04,7,710
2021-12-05,7,662
2021-12-06,9,838
2021-12-07,0,814
2021-12-08,4,819
2021-12-09,5,812
2021-12-10,4,819
2021-12-11,6,710
2021-12-12,12,641
2021-12-13,6,826
2021-12-14,8,820
2021-12-15,7,811
2021-12-16,4,761
2021-12-17,12,784
2021-12-18,8,673
2021-12-19,12,684
2021-12-20,6,805
2021-12-21,7,776
2021-12-22,4,811
2021-12-23,5,759
2021-12-24,6,757
2021-12-25,10,636
2021-12-26,8,665
2021-12-27,10,814
2021-12-28,15,805
2021-12-29,3,742
2021-12-30,7,788
2021-12-31,13,761
2022-01-01,4,580
2022-01-02,4,604
2022-01-03,8,671
2022-01-04,5,792
2022-01-05,7,780
2022-01-06,10,813
2022-01-07,7,793
2022-01-08,7,680
2022-01-09,7,38
2022-01-10,7,0
2022-01-11,5,809
2022-01-12,7,749
2022-01-13,5,795
2022-01-14,7,749
2022-01-15,5,669
2022-01-16,3,650
2022-01-17,8,787
2022-01-18,8,789
2022-01-19,6,764
2022-01-20,8,773
2022-01-21,6,781
2022-01-22,8,677
2022-01-23,5,628
2022-01-24,6,777
2022-01-25,13,768
2022-01-26,4,733
2022-01-27,6,702
2022-01-28,5,681
2022-01-29,8,611
2022-01-30,8,561
2022-01-31,3,491
2022-02-01,6,474
2022-02-02,4,500
2022-02-03,2,486
2022-02-04,0,492
2022-02-05,3,515
2022-02-06,7,552
2022-02-07,5,639
2022-02-08,5,717
2022-02-09,4,730
2022-02-10,3,806
2022-02-11,5,744
2022-02-12,6,665
2022-02-13,7,669
2022-02-14,9,771
2022-02-15,4,756
2022-02-16,5,759
2022-02-17,12,772
2022-02-18,1,756
2022-02-19,7,675
2022-02-20,6,650
2022-02-21,2,790
2022-02-22,3,785
2022-02-23,4,759
2022-02-24,4,785
2022-02-25,7,754
2022-02-26,8,687
2022-02-27,4,621
2022-02-28,0,791
2022-03-01,2,783
2022-03-02,2,783
2022-03-03,11,750
2022-03-04,7,719
2022-03-05,12,690
2022-03-06,2,635
2022-03-07,7,763
2022-03-08,11,767
2022-03-09,9,807
2022-03-10,9,774
2022-03-11,12,779
2022-03-12,11,699
2022-03-13,15,657
2022-03-14,8,816
2022-03-15,11,775
2022-03-16,11,812
2022-03-17,6,797
2022-03-18,12,799
2022-03-19,11,722
2022-03-20,11,703
2022-03-21,3,804
2022-03-22,6,802
2022-03-23,3,829
2022-03-24,10,807
2022-03-25,6,834
2022-03-26,9,725
2022-03-27,5,704
2022-03-28,9,818
2022-03-29,8,810
2022-03-30,12,819
2022-03-31,10,860
2022-04-01,7,797
2022-04-02,7,812
2022-04-03,8,683
2022-04-04,11,677
2022-04-05,5,716
2022-04-06,8,807
2022-04-07,4,829
2022-04-08,7,777
2022-04-09,13,749
2022-04-10,10,676
2022-04-11,9,860
2022-04-12,5,819
2022-04-13,3,843
2022-04-14,5,810
2022-04-15,4,795
2022-04-16,14,722
2022-04-17,12,695
2022-04-18,15,816
2022-04-19,9,821
2022-04-20,18,816
2022-04-21,8,809
2022-04-22,11,782
2022-04-23,16,731
2022-04-24,11,801
2022-04-25,8,831
2022-04-26,6,769
2022-04-27,10,825
2022-04-28,9,803
2022-04-29,13,803
2022-04-30,8,711
2022-05-01,9,685
2022-05-02,5,678
2022-05-03,4,662
2022-05-04,13,739
2022-05-05,14,793
2022-05-06,7,824
2022-05-07,13,836
2022-05-08,11,689
2022-05-09,8,833
2022-05-10,5,782
2022-05-11,6,858
2022-05-12,8,811
2022-05-13,10,840
2022-05-14,10,716
2022-05-15,4,715
2022-05-16,7,807
2022-05-17,11,781
2022-05-18,10,826
2022-05-19,8,803
2022-05-20,3,770
2022-05-21,9,711
2022-05-22,14,682
2022-05-23,5,798
2022-05-24,7,769
2022-05-25,8,728
2022-05-26,5,813
2022-05-27,2,789
2022-05-28,15,708
2022-05-29,7,693
2022-05-30,5,806
2022-05-31,5,772
2022-06-01,2,777
2022-06-02,5,743
2022-06-03,4,664
2022-06-04,6,647
2022-06-05,7,691
2022-06-06,6,827
2022-06-07,4,779
2022-06-08,7,801
2022-06-09,3,799
2022-06-10,9,809
2022-06-11,9,732
2022-06-12,8,681
2022-06-13,6,793
2022-06-14,8,804
2022-06-15,4,789
2022-06-16,2,777
2022-06-17,4,760
2022-06-18,4,680
2022-06-19,7,669
2022-06-20,6,797
2022-06-21,9,752
2022-06-22,5,762
2022-06-23,4,736
2022-06-24,5,768
2022-06-25,7,659
2022-06-26,10,662
2022-06-27,9,786
2022-06-28,3,784
2022-06-29,4,809
2022-06-30,4,768
2022-07-01,7,783
2022-07-02,6,698
2022-07-03,2,680
2022-07-04,2,744
2022-07-05,8,738
2022-07-06,4,781
2022-07-07,8,744
2022-07-08,10,767
2022-07-09,10,673
2022-07-10,4,627
2022-07-11,4,743
2022-07-12,6,780
2022-07-13,4,775
2022-07-14,4,748
2022-07-15,7,753
2022-07-16,7,666
2022-07-17,6,643
2022-07-18,4,763
2022-07-19,5,751
2022-07-20,6,777
2022-07-21,3,763
2022-07-22,2,727
2022-07-23,6,636
2022-07-24,3,424
2022-07-25,5,782
2022-07-26,2,745
2022-07-27,4,764
2022-07-28,8,713
2022-07-29,5,722
2022-07-30,3,628
2022-07-31,5,618
2022-08-01,6,743
2022-08-02,8,768
2022-08-03,5,731
2022-08-04,6,725
2022-08-05,7,717
2022-08-06,5,659
2022-08-07,5,642
2022-08-08,7,731
2022-08-09,7,737
2022-08-10,7,734
2022-08-11,9,730
2022-08-12,10,732
2022-08-13,7,643
2022-08-14,4,627
2022-08-15,5,745
2022-08-16,6,726
2022-08-17,5,740
2022-08-18,11,724
2022-08-19,3,713
2022-08-20,6,657
2022-08-21,5,628
2022-08-22,4,755
2022-08-23,12,739
2022-08-24,8,780
2022-08-25,9,773
2022-08-26,13,717
2022-08-27,12,643
2022-08-28,8,624
2022-08-29,5,764
2022-08-30,1,740
2022-08-31,9,794
2022-09-01,2,729
2022-09-02,11,732
2022-09-03,6,659
2022-09-04,9,643
2022-09-05,7,722
2022-09-06,10,745
2022-09-07,3,746
2022-09-08,5,751
2022-09-09,8,769
2022-09-10,4,591
2022-09-11,12,598
2022-09-12,6,657
2022-09-13,8,765
2022-09-14,9,746
2022-09-15,7,736
2022-09-16,7,765
2022-09-17,5,662
2022-09-18,3,643
2022-09-19,7,779
2022-09-20,5,757
2022-09-21,2,772
2022-09-22,4,776
2022-09-23,7,763
2022-09-24,5,685
2022-09-25,9,639
2022-09-26,3,764
2022-09-27,9,729
2022-09-28,5,753
2022-09-29,9,750
2022-09-30,12,749
2022-10-01,11,584
2022-10-02,17,546
2022-10-03,9,591
2022-10-04,11,561
2022-10-05,8,628
2022-10-06,10,629
2022-10-07,10,691
2022-10-08,5,784
2022-10-09,4,800
2022-10-10,5,783
2022-10-11,9,747
2022-10-12,11,773
2022-10-13,11,783
2022-10-14,4,787
2022-10-15,8,659
2022-10-16,16,673
2022-10-17,12,784
2022-10-18,10,766
2022-10-19,11,812
2022-10-20,6,789
2022-10-21,10,782
2022-10-22,7,702
2022-10-23,10,686
2022-10-24,7,848
2022-10-25,6,782
2022-10-26,15,806
2022-10-27,5,819
2022-10-28,16,809
2022-10-29,12,678
2022-10-30,10,689
2022-10-31,10,815
2022-11-01,9,806
2022-11-02,10,795
2022-11-03,9,825
2022-11-04,10,804
2022-11-05,12,691
2022-11-06,12,684
2022-11-07,3,809
2022-11-08,14,786
2022-11-09,5,823
2022-11-10,12,795
2022-11-11,9,814
2022-11-12,10,737
2022-11-13,9,684
2022-11-14,10,806
2022-11-15,11,826
2022-11-16,9,792
2022-11-17,13,768
2022-11-18,12,785
2022-11-19,6,692
2022-11-20,7,681
2022-11-21,9,800
2022-11-22,11,827
2022-11-23,6,804
2022-11-24,3,874